| time (UTC) | temp F | wind direction | speed MPH | gust MPH | rain 1hr in | rain 24hr in | rain mn in | humidity % | barometer mb |
| 20260901164603 | 92 | 152 | 7.0 | 16.0 | 0.00 | 0.00 | 0.00 | 45 | 997.0 |
| 20260901163054 | 92 | 128 | 9.0 | 19.0 | 0.00 | 0.00 | 0.00 | 45 | 997.0 |
| 20260901161604 | 91 | 144 | 7.0 | 19.0 | 0.00 | 0.00 | 0.00 | 46 | 996.9 |
| 20260901160106 | 91 | 115 | 6.0 | 15.0 | 0.00 | 0.00 | 0.00 | 46 | 996.8 |
| 20260901154543 | 91 | 143 | 10.0 | 19.0 | 0.00 | 0.00 | 0.00 | 46 | 996.8 |
| 20260901153041 | 90 | 157 | 8.0 | 14.0 | 0.00 | 0.00 | 0.00 | 46 | 996.7 |
| 20260901151539 | 90 | 221 | 7.0 | 21.0 | 0.00 | 0.00 | 0.00 | 46 | 996.5 |
| 20260901150035 | 88 | 166 | 7.0 | 13.0 | 0.00 | 0.00 | 0.00 | 48 | 996.5 |
| 20260901144536 | 88 | 146 | 5.0 | 14.0 | 0.00 | 0.00 | 0.00 | 49 | 996.6 |
| 20260901143036 | 88 | 206 | 5.0 | 10.0 | 0.00 | 0.00 | 0.00 | 50 | 996.7 |
| 20260901141529 | 87 | 196 | 5.0 | 12.0 | 0.00 | 0.00 | 0.00 | 51 | 996.5 |
| 20260901140032 | 86 | 150 | 5.0 | 8.0 | 0.00 | 0.00 | 0.00 | 52 | 996.3 |
| 20260901134527 | 85 | 140 | 5.0 | 10.0 | 0.00 | 0.00 | 0.00 | 54 | 996.3 |
| 20260901133023 | 83 | 138 | 3.0 | 6.0 | 0.00 | 0.00 | 0.00 | 56 | 996.1 |
| 20260901131524 | 83 | 155 | 0.0 | 2.0 | 0.00 | 0.00 | 0.00 | 56 | 996.0 |
| 20260901130026 | 83 | 172 | 1.0 | 4.0 | 0.00 | 0.00 | 0.00 | 55 | 995.9 |
| 20260901124527 | 83 | 219 | 0.0 | 4.0 | 0.00 | 0.00 | 0.00 | 55 | 995.8 |
| 20260901123036 | 84 | 201 | 1.0 | 3.0 | 0.00 | 0.00 | 0.00 | 54 | 995.8 |
| 20260901121515 | 84 | 225 | 1.0 | 5.0 | 0.00 | 0.00 | 0.00 | 54 | 995.7 |
| 20260901120013 | 83 | 103 | 1.0 | 5.0 | 0.00 | 0.00 | 0.00 | 55 | 995.7 |
| 20260901114513 | 83 | 223 | 0.0 | 2.0 | 0.00 | 0.00 | 0.00 | 55 | 995.6 |
| 20260901113012 | 83 | 201 | 1.0 | 2.0 | 0.00 | 0.00 | 0.00 | 54 | 995.5 |
| 20260901111511 | 84 | 255 | 0.0 | 1.0 | 0.00 | 0.00 | 0.00 | 53 | 995.6 |
| 20260901110011 | 85 | 250 | 3.0 | 6.0 | 0.00 | 0.00 | 0.00 | 52 | 995.6 |
| 20260901104512 | 85 | 140 | 2.0 | 7.0 | 0.00 | 0.00 | 0.00 | 51 | 995.5 |
| 20260901103009 | 84 | 145 | 3.0 | 7.0 | 0.00 | 0.00 | 0.00 | 52 | 995.5 |
| 20260901101508 | 83 | 275 | 0.0 | 1.0 | 0.00 | 0.00 | 0.00 | 54 | 995.6 |
| 20260901100005 | 84 | 273 | 0.0 | 1.0 | 0.00 | 0.00 | 0.00 | 53 | 995.6 |
| 20260901094510 | 85 | 228 | 0.0 | 5.0 | 0.00 | 0.00 | 0.00 | 49 | 995.5 |
| 20260901093003 | 85 | 180 | 2.0 | 6.0 | 0.00 | 0.00 | 0.00 | 49 | 995.4 |
| 20260901091502 | 85 | 285 | 0.0 | 4.0 | 0.00 | 0.00 | 0.00 | 52 | 995.3 |
| 20260901084600 | 85 | 160 | 0.0 | 4.0 | 0.00 | 0.00 | 0.00 | 51 | 995.3 |
| 20260901083100 | 85 | 163 | 0.0 | 5.0 | 0.00 | 0.00 | 0.00 | 51 | 995.3 |
| 20260901081558 | 85 | 151 | 0.0 | 4.0 | 0.00 | 0.00 | 0.00 | 50 | 995.3 |
| 20260901080058 | 86 | 163 | 1.0 | 5.0 | 0.00 | 0.00 | 0.00 | 50 | 995.3 |
| 20260901074558 | 86 | 151 | 2.0 | 6.0 | 0.00 | 0.00 | 0.00 | 51 | 995.3 |
| 20260901073055 | 85 | 150 | 2.0 | 5.0 | 0.00 | 0.00 | 0.00 | 52 | 995.2 |
| 20260901071553 | 85 | 217 | 0.0 | 3.0 | 0.00 | 0.00 | 0.00 | 53 | 995.1 |
| 20260901070054 | 85 | 157 | 0.0 | 1.0 | 0.00 | 0.00 | 0.00 | 53 | 994.9 |
| 20260901064550 | 86 | 218 | 2.0 | 5.0 | 0.00 | 0.00 | 0.00 | 51 | 995.0 |
| 20260901063104 | 87 | 254 | 3.0 | 7.0 | 0.00 | 0.00 | 0.00 | 49 | 994.8 |
| 20260901061558 | 88 | 217 | 2.0 | 9.0 | 0.00 | 0.00 | 0.00 | 47 | 994.7 |
| 20260901060057 | 88 | 161 | 6.0 | 12.0 | 0.00 | 0.00 | 0.00 | 46 | 994.5 |
| 20260901054548 | 89 | 149 | 5.0 | 11.0 | 0.00 | 0.00 | 0.00 | 44 | 994.6 |
| 20260901053104 | 89 | 177 | 5.0 | 10.0 | 0.00 | 0.00 | 0.00 | 43 | 994.6 |
| 20260901051546 | 90 | 142 | 6.0 | 11.0 | 0.00 | 0.00 | 0.00 | 42 | 994.7 |
| 20260901050047 | 90 | 216 | 7.0 | 15.0 | 0.00 | 0.00 | 0.00 | 41 | 994.7 |
| 20260901044551 | 91 | 168 | 6.0 | 12.0 | 0.00 | 0.00 | 0.00 | 40 | 994.6 |
| 20260901043046 | 91 | 128 | 7.0 | 14.0 | 0.00 | 0.00 | 0.00 | 39 | 994.4 |
| 20260901041545 | 91 | 153 | 7.0 | 18.0 | 0.00 | 0.00 | 0.00 | 38 | 994.4 |
| 20260901040048 | 92 | 166 | 9.0 | 19.0 | 0.00 | 0.00 | 0.00 | 38 | 993.9 |
| 20260901034544 | 92 | 213 | 9.0 | 21.0 | 0.00 | 0.00 | 0.00 | 39 | 993.6 |
| 20260901033044 | 92 | 140 | 10.0 | 16.0 | 0.00 | 0.00 | 0.00 | 40 | 993.4 |
| 20260901031543 | 92 | 138 | 8.0 | 16.0 | 0.00 | 0.00 | 0.00 | 41 | 993.1 |
| 20260901030043 | 92 | 226 | 7.0 | 18.0 | 0.00 | 0.00 | 0.00 | 40 | 993.0 |
| 20260901024543 | 93 | 163 | 9.0 | 19.0 | 0.00 | 0.00 | 0.00 | 39 | 992.8 |
| 20260901023044 | 93 | 146 | 8.0 | 19.0 | 0.00 | 0.00 | 0.00 | 40 | 992.6 |
| 20260901021544 | 93 | 203 | 12.0 | 21.0 | 0.00 | 0.00 | 0.00 | 39 | 992.4 |
| 20260901020048 | 94 | 165 | 10.0 | 21.0 | 0.00 | 0.00 | 0.00 | 36 | 992.1 |
| 20260901014542 | 96 | 153 | 9.0 | 21.0 | 0.00 | 0.00 | 0.00 | 35 | 991.9 |
| 20260901013041 | 96 | 153 | 13.0 | 23.0 | 0.00 | 0.00 | 0.00 | 37 | 991.9 |
| 20260901011540 | 97 | 155 | 12.0 | 23.0 | 0.00 | 0.00 | 0.00 | 37 | 991.7 |
| 20260901010039 | 98 | 169 | 14.0 | 22.0 | 0.00 | 0.00 | 0.00 | 37 | 991.8 |
| 20260901004550 | 98 | 147 | 11.0 | 22.0 | 0.00 | 0.00 | 0.00 | 36 | 991.7 |
| 20260901003038 | 100 | 86 | 11.0 | 19.0 | 0.00 | 0.00 | 0.00 | 34 | 991.8 |
| 20260901001538 | 100 | 168 | 13.0 | 22.0 | 0.00 | 0.00 | 0.00 | 34 | 991.8 |
| 20260901000058 | 100 | 151 | 12.0 | 22.0 | 0.00 | 0.00 | 0.00 | 33 | 991.8 |
| 20260831234537 | 101 | 169 | 10.0 | 24.0 | 0.00 | 0.00 | 0.00 | 34 | 991.9 |
| 20260831233036 | 99 | 189 | 12.0 | 23.0 | 0.00 | 0.00 | 0.00 | 37 | 991.8 |
| 20260831231547 | 100 | 163 | 14.0 | 27.0 | 0.00 | 0.00 | 0.00 | 36 | 991.9 |
| 20260831230037 | 102 | 146 | 12.0 | 21.0 | 0.00 | 0.00 | 0.00 | 32 | 991.9 |
| 20260831224527 | 102 | 149 | 11.0 | 22.0 | 0.00 | 0.00 | 0.00 | 32 | 992.0 |
| 20260831223024 | 102 | 205 | 10.0 | 20.0 | 0.00 | 0.00 | 0.00 | 32 | 992.2 |
| 20260831221522 | 101 | 159 | 13.0 | 23.0 | 0.00 | 0.00 | 0.00 | 32 | 992.4 |
| 20260831220019 | 103 | 151 | 11.0 | 23.0 | 0.00 | 0.00 | 0.00 | 31 | 992.6 |
| 20260831214515 | 102 | 134 | 12.0 | 25.0 | 0.00 | 0.00 | 0.00 | 31 | 992.8 |
| 20260831213013 | 102 | 154 | 14.0 | 23.0 | 0.00 | 0.00 | 0.00 | 31 | 993.1 |
| 20260831211512 | 101 | 107 | 11.0 | 22.0 | 0.00 | 0.00 | 0.00 | 32 | 993.3 |
| 20260831210011 | 102 | 171 | 12.0 | 22.0 | 0.00 | 0.00 | 0.00 | 29 | 993.5 |
| 20260831204508 | 102 | 129 | 12.0 | 21.0 | 0.00 | 0.00 | 0.00 | 31 | 993.8 |
| 20260831203005 | 101 | 159 | 11.0 | 21.0 | 0.00 | 0.00 | 0.00 | 31 | 994.1 |
| 20260831201505 | 102 | 167 | 9.0 | 20.0 | 0.00 | 0.00 | 0.00 | 30 | 994.2 |
| 20260831200100 | 102 | 134 | 7.0 | 15.0 | 0.00 | 0.00 | 0.00 | 31 | 994.4 |
| 20260831194636 | 101 | 119 | 11.0 | 22.0 | 0.00 | 0.00 | 0.00 | 30 | 994.8 |
| 20260831193055 | 101 | 219 | 7.0 | 20.0 | 0.00 | 0.00 | 0.00 | 30 | 994.9 |
| 20260831191551 | 100 | 154 | 12.0 | 22.0 | 0.00 | 0.00 | 0.00 | 30 | 994.8 |
| 20260831184542 | 99 | 211 | 9.0 | 24.0 | 0.00 | 0.00 | 0.00 | 30 | 995.2 |
| 20260831183038 | 98 | 140 | 11.0 | 19.0 | 0.00 | 0.00 | 0.00 | 31 | 995.3 |
| 20260831181542 | 98 | 126 | 12.0 | 21.0 | 0.00 | 0.00 | 0.00 | 31 | 995.4 |
| 20260831180030 | 98 | 135 | 10.0 | 20.0 | 0.00 | 0.00 | 0.00 | 32 | 995.4 |
| 20260831174528 | 96 | 158 | 10.0 | 20.0 | 0.00 | 0.00 | 0.00 | 34 | 995.5 |
| 20260831173024 | 96 | 122 | 9.0 | 16.0 | 0.00 | 0.00 | 0.00 | 34 | 995.6 |
| 20260831171523 | 95 | 127 | 12.0 | 20.0 | 0.00 | 0.00 | 0.00 | 36 | 995.6 |
| 20260831170026 | 96 | 164 | 10.0 | 18.0 | 0.00 | 0.00 | 0.00 | 35 | 995.4 |